This is the latest recevied weather packets stored in our database for station/object OE9FWV. If no packets are shown the sender has not sent any weather packets the latest 1 day(s).
| Time | Temp. | Humidity | Pressure | Rain* | Wind** | Luminosity | Snow |
|---|---|---|---|---|---|---|---|
| 1778046035 | 11.11° C | 85% | 1006.2 hPa | 0 mm | - | - | - |
| 1778044220 | 10.56° C | 85% | 1006.2 hPa | 0 mm | - | - | - |
| 1778041195 | 10.56° C | 85% | 1006.7 hPa | 0 mm | - | - | - |
| 1778038776 | 10.56° C | 84% | 1007.4 hPa | 0 mm | - | - | - |
| 1778036353 | 10.56° C | 83% | 1007.5 hPa | 0 mm | - | - | - |
| 1778035746 | 11.11° C | 83% | 1007.7 hPa | 0 mm | - | - | - |
| 1778035146 | 11.11° C | 82% | 1008 hPa | 0 mm | - | - | - |
| 1778034545 | 11.11° C | 82% | 1008.1 hPa | 0 mm | - | - | - |
| 1778033328 | 11.11° C | 82% | 1008.2 hPa | 0 mm | - | - | - |
| 1778032727 | 11.11° C | 82% | 1008.3 hPa | 0 mm | - | - | - |
| 1778031517 | 11.11° C | 81% | 1008.3 hPa | 0 mm | - | - | - |
| 1778030914 | 11.11° C | 81% | 1008.4 hPa | 0 mm | - | - | - |
| 1778030306 | 11.11° C | 81% | 1008.4 hPa | 0 mm | - | - | - |
| 1778028494 | 11.11° C | 81% | 1008.5 hPa | 0 mm | - | - | - |
| 1778027890 | 11.67° C | 81% | 1008.3 hPa | 0 mm | - | - | - |
| 1778026084 | 11.11° C | 81% | 1008.9 hPa | 0 mm | - | - | - |
| 1778024269 | 11.67° C | 79% | 1008.7 hPa | 0 mm | - | - | - |
| 1778023062 | 12.22° C | 78% | 1009 hPa | 0 mm | - | - | - |
| 1778018835 | 12.78° C | 76% | 1009 hPa | 0 mm | - | - | - |
| 1778015212 | 13.89° C | 72% | 1009.2 hPa | 0 mm | - | - | - |
| 1778014008 | 13.89° C | 71% | 1009.1 hPa | 0 mm | - | - | - |
* Rain latest hour (hover to see other rain measurements)
** Current wind speed in m/s (hover to see current wind gust speed)